(175786) = 1999 PT3

Discovered at Socorro on 1999-08-12 by LINEAR.

Orbit

Orbit type: Mars-crosser

Note: WebGL enabled browser required.

epoch2024-03-31.0
epoch JD2460400.5
perihelion date2021-11-07.73191
perihelion JD2459526.23191
argument of perihelion (°)340.16780
ascending node (°)310.72463
inclination (°)9.06485
eccentricity0.3646788
perihelion distance (AU)1.3757130
Tisserand w.r.t. Jupiter3.6
ΔV w.r.t. Earth (km/sec)7.5
semimajor axis (AU)2.1653820
mean anomaly (°)270.42491
mean daily motion (°/day)0.30931580
aphelion distance (AU)2.955
period (years)3.19
P-vector [x]0.35982568
P-vector [y]-0.83336070
P-vector [z]-0.41956576
Q-vector [x]0.92534791
Q-vector [y]0.26120115
Q-vector [z]0.27478212
absolute magnitude16.57
phase slope0.15
uncertainty0
referenceMPEC 2024-F14
observations used721
oppositions15
arc length (days)8984
first opposition used1999
last opposition used2024
residual rms (arc-secs)0.69
perturbers coarse indicatorM-v
perturbers precise indicator003Ek
first observation date used1999-08-12.0
last observation date used2024-03-17.0
computer nameMPCLINUX
JD of orbit computation2456731.552164
perihelion JD uncertainty (days)2.0669E-04
argument of perihelion uncertainty (°)4.4804E-05
ascending node uncertainty (°)3.0649E-05
inclination uncertainty (°)7.9076E-06
eccentricity uncertainty 1.6830E-07
perihelion distance uncertainty (AU)3.4367E-07
Minimum Orbit Intersection Distances (in AU)
for orbit epoch: 2460400.5, reference: E2024-G04
Mercury0.92294
Venus0.64806
Earth0.36396
Mars0.02152
Jupiter2.26041
Saturn6.1214
Uranus15.6856
Neptune27.1439

Observations

730 total observations over interval: 1999 08 12.15226 – 2024 03 17.220648
These data are available for download (format description).

Date (UT) J2000 RA J2000 Dec Magn Location Ref
1999 08 12.15226 19 25 11.18 -22 20 42.1 17.3   704 – Lincoln Laboratory ETS, New Mexico MPS 5933
1999 08 12.16425 19 25 11.52 -22 20 26.2 17.4   704 – Lincoln Laboratory ETS, New Mexico MPS 5933
1999 08 12.17652 19 25 11.91 -22 20 10.6 18.4   704 – Lincoln Laboratory ETS, New Mexico MPS 5933
1999 08 12.18850 19 25 12.23 -22 19 54.1 18.1   704 – Lincoln Laboratory ETS, New Mexico MPS 5933
1999 08 12.20048 19 25 12.46 -22 19 37.6 17.8   704 – Lincoln Laboratory ETS, New Mexico MPS 5933
1999 08 12.86734 19 25 35.48 -22 04 32.8   557 – Ondrejov MPS 5933
1999 08 12.86993 19 25 35.59 -22 04 29.7   557 – Ondrejov MPS 5933
1999 08 13.21348 19 25 48.05 -21 56 43.4 16.1 V 676 – San Clemente MPS 5933
1999 08 13.50492 19 25 58.34 -21 49 53.6 16.8 R 428 – Reedy Creek MPS 5933
1999 08 13.51413 19 25 58.60 -21 49 40.6 17.0 R 428 – Reedy Creek MPS 5933
1999 08 13.52324 19 25 58.85 -21 49 28.1 17.2 R 428 – Reedy Creek MPS 5933
1999 08 13.54321 19 25 59.73 -21 49 01.7 16.7 R 426 – Woomera MPS 5933
1999 08 13.55986 19 26 00.16 -21 48 38.8 16.7 R 426 – Woomera MPS 5933
1999 08 13.56387 19 26 00.31 -21 48 34.0 16.9 R 426 – Woomera MPS 5933
1999 08 13.85270 19 26 11.55 -21 42 28.6   108 – Montelupo MPS 5933
1999 08 13.85845 19 26 11.79 -21 42 20.7   108 – Montelupo MPS 5933
1999 08 13.86644 19 26 12.00 -21 42 09.4 17.2 V 108 – Montelupo MPS 5933
1999 08 13.86667 19 26 11.95 -21 42 10.7 16.4 V 557 – Ondrejov MPS 5933
1999 08 13.87096 19 26 12.01 -21 42 04.9   046 – Klet Observatory, Ceske Budejovice MPS 5933
1999 08 13.87819 19 26 12.60 -21 41 54.3   952 – Marxuquera MPS 5933
1999 08 13.87907 19 26 12.25 -21 41 54.4   046 – Klet Observatory, Ceske Budejovice MPS 5933
1999 08 13.88023 19 26 12.28 -21 41 52.7   046 – Klet Observatory, Ceske Budejovice MPS 5933
1999 08 13.88162 19 26 12.34 -21 41 50.9   046 – Klet Observatory, Ceske Budejovice MPS 5933
1999 08 13.88318 19 26 12.39 -21 41 48.8   046 – Klet Observatory, Ceske Budejovice MPS 5933
1999 08 13.88436 19 26 12.42 -21 41 47.5 15.8 R 046 – Klet Observatory, Ceske Budejovice MPS 5933
1999 08 13.88486 19 26 12.74 -21 41 47.0   952 – Marxuquera MPS 5933
1999 08 13.89051 19 26 12.90 -21 41 39.3   952 – Marxuquera MPS 5933
1999 08 13.89616 19 26 13.09 -21 41 31.1   952 – Marxuquera MPS 5933
1999 08 13.90181 19 26 13.24 -21 41 24.4   952 – Marxuquera MPS 5933
1999 08 13.91624 19 26 13.40 -21 41 04.5   118 – Astronomical and Geophysical Observatory, Modra MPS 5933
1999 08 13.92230 19 26 13.61 -21 40 56.6   118 – Astronomical and Geophysical Observatory, Modra MPS 5933
1999 08 13.92537 19 26 13.70 -21 40 52.5   118 – Astronomical and Geophysical Observatory, Modra MPS 5933
1999 08 14.42164 19 26 33.67 -21 29 32.0 16.9 R 428 – Reedy Creek MPS 5933
1999 08 14.50256 19 26 36.20 -21 27 45.5 17.1 R 428 – Reedy Creek MPS 5933
1999 08 14.50707 19 26 36.33 -21 27 39.7 17.1 R 428 – Reedy Creek MPS 5933
1999 08 14.56318 19 26 38.32 -21 26 24.1 16.2 R 426 – Woomera MPS 5933
1999 08 14.56611 19 26 38.43 -21 26 20.4 16.4 R 426 – Woomera MPS 5933
1999 08 14.56936 19 26 38.54 -21 26 16.1 16.3 R 426 – Woomera MPS 5933
1999 09 13.16631 19 59 32.74 -12 57 02.8 18.5   704 – Lincoln Laboratory ETS, New Mexico MPS 6096
1999 09 13.17826 19 59 33.77 -12 56 53.4 18.4   704 – Lincoln Laboratory ETS, New Mexico MPS 6096
1999 09 13.19039 19 59 34.77 -12 56 43.8 18.9   704 – Lincoln Laboratory ETS, New Mexico MPS 6096
1999 09 13.20226 19 59 35.77 -12 56 33.9 19.0   704 – Lincoln Laboratory ETS, New Mexico MPS 6096
1999 09 13.21403 19 59 36.78 -12 56 25.0 18.4   704 – Lincoln Laboratory ETS, New Mexico MPS 6096
1999 09 30.19503 20 27 10.22 -09 39 11.8 18.4   704 – Lincoln Laboratory ETS, New Mexico MPS 6757
1999 09 30.20974 20 27 11.73 -09 39 02.1 18.6   704 – Lincoln Laboratory ETS, New Mexico MPS 6757
1999 09 30.22435 20 27 13.14 -09 38 53.4 18.7   704 – Lincoln Laboratory ETS, New Mexico MPS 6757
1999 09 30.23910 20 27 14.68 -09 38 42.8 18.6   704 – Lincoln Laboratory ETS, New Mexico MPS 6757
1999 09 30.25375 20 27 16.23 -09 38 35.0 18.9   704 – Lincoln Laboratory ETS, New Mexico MPS 6757
1999 10 08.11777 20 41 14.70 -08 18 54.9 19.6   704 – Lincoln Laboratory ETS, New Mexico MPS 6757
1999 10 08.13357 20 41 16.25 -08 18 46.1 19.4   704 – Lincoln Laboratory ETS, New Mexico MPS 6757
1999 10 08.14950 20 41 17.93 -08 18 36.4 19.5   704 – Lincoln Laboratory ETS, New Mexico MPS 6757
2002 05 09.16733 12 00 31.29 -19 29 49.6 19.7   704 – Lincoln Laboratory ETS, New Mexico MPS 129934
2002 05 09.17958 12 00 30.87 -19 29 45.3 18.4   704 – Lincoln Laboratory ETS, New Mexico MPS 129934
2002 05 09.19183 12 00 30.47 -19 29 40.3 18.6   704 – Lincoln Laboratory ETS, New Mexico MPS 129934
2002 05 09.20407 12 00 30.04 -19 29 35.3 18.6   704 – Lincoln Laboratory ETS, New Mexico MPS 129934
2005 03 04.27858 11 05 11.96 -04 05 06.2 18.4 R 703 – Catalina Sky Survey MPS 127718
2005 03 04.28871 11 05 11.26 -04 05 05.0 18.6 R 703 – Catalina Sky Survey MPS 127718
2005 03 04.29906 11 05 10.36 -04 05 02.6 18.9 R 703 – Catalina Sky Survey MPS 127718
2005 03 04.30940 11 05 09.64 -04 05 01.3 19.4 R 703 – Catalina Sky Survey MPS 127718
2005 03 07.26023 11 01 31.24 -03 55 36.1 19.3   704 – Lincoln Laboratory ETS, New Mexico MPS 127718
2005 03 07.27190 11 01 30.40 -03 55 34.0 19.9   704 – Lincoln Laboratory ETS, New Mexico MPS 127718
2005 03 07.28356 11 01 29.48 -03 55 31.0 19.7   704 – Lincoln Laboratory ETS, New Mexico MPS 127718
2005 03 07.29523 11 01 28.58 -03 55 28.1 19.8   704 – Lincoln Laboratory ETS, New Mexico MPS 127718
2005 03 07.30758 11 01 27.63 -03 55 25.9 19.8   704 – Lincoln Laboratory ETS, New Mexico MPS 127718
2005 03 13.23573 10 54 01.83 -03 32 53.2 18.8   703 – Catalina Sky Survey MPS 128863
2005 03 13.24219 10 54 01.28 -03 32 52.3 19.4   703 – Catalina Sky Survey MPS 128863
2005 03 13.24865 10 54 00.87 -03 32 49.3 18.5   703 – Catalina Sky Survey MPS 128863
2005 03 13.25508 10 54 00.34 -03 32 48.5 19.2   703 – Catalina Sky Survey MPS 128863
2005 04 09.18836 10 26 02.79 -01 29 58.7 19.4   704 – Lincoln Laboratory ETS, New Mexico MPS 131492
2005 04 09.20216 10 26 02.16 -01 29 55.0 19.6   704 – Lincoln Laboratory ETS, New Mexico MPS 131492
2005 04 09.21314 10 26 01.74 -01 29 52.6 19.6   704 – Lincoln Laboratory ETS, New Mexico MPS 131492
2005 04 09.22317 10 26 01.26 -01 29 50.3 19.7   704 – Lincoln Laboratory ETS, New Mexico MPS 131492
2007 12 05.45991 10 28 36.84 +08 43 11.4 21.4 V G96 – Mt. Lemmon Survey MPS 229668
2007 12 05.46551 10 28 37.05 +08 43 09.8 21.7 V G96 – Mt. Lemmon Survey MPS 229668
2007 12 05.47111 10 28 37.20 +08 43 08.6 21.5 V G96 – Mt. Lemmon Survey MPS 229668
2007 12 05.47670 10 28 37.38 +08 43 06.2 21.7 V G96 – Mt. Lemmon Survey MPS 229668
2007 12 14.50208 10 32 05.60 +08 01 26.8 21.8 V G96 – Mt. Lemmon Survey MPS 230888
2007 12 14.50986 10 32 05.74 +08 01 24.8 22.6 V G96 – Mt. Lemmon Survey MPS 230888
2007 12 14.51778 10 32 05.74 +08 01 22.9 21.6 V G96 – Mt. Lemmon Survey MPS 230888
2007 12 14.52574 10 32 05.96 +08 01 20.9 22.4 V G96 – Mt. Lemmon Survey MPS 230888
2008 02 10.28741 10 06 16.34 +07 20 26.7 20.2 V 703 – Catalina Sky Survey MPS 237340
2008 02 10.29411 10 06 15.87 +07 20 28.6 20.2 V 703 – Catalina Sky Survey MPS 237340
2008 02 10.30080 10 06 15.48 +07 20 29.1 19.9 V 703 – Catalina Sky Survey MPS 237340
2008 02 10.30751 10 06 14.94 +07 20 31.0 20.5 V 703 – Catalina Sky Survey MPS 237340
2008 02 10.38146 10 06 09.79 +07 20 42.5 20.2 V G96 – Mt. Lemmon Survey MPS 237340
2008 02 10.38997 10 06 09.21 +07 20 44.1 20.4 V G96 – Mt. Lemmon Survey MPS 237340
2008 02 10.40337 10 06 08.31 +07 20 46.2 20.5 V G96 – Mt. Lemmon Survey MPS 237340
2008 02 10.41412 10 06 07.52 +07 20 48.0 19.7 V G96 – Mt. Lemmon Survey MPS 237340
2008 02 26.33576 09 47 15.58 +08 12 35.5 19.7   704 – Lincoln Laboratory ETS, New Mexico MPS 240554
2008 02 26.37158 09 47 13.01 +08 12 44.2 19.7   704 – Lincoln Laboratory ETS, New Mexico MPS 240554
2008 02 26.38337 09 47 12.12 +08 12 46.5 20.0   704 – Lincoln Laboratory ETS, New Mexico MPS 240554
2008 03 12.22521 09 31 05.66 +09 01 27.2 20.1 V 703 – Catalina Sky Survey MPS 243950
2008 03 12.23189 09 31 05.30 +09 01 28.2 20.0 V 703 – Catalina Sky Survey MPS 243950
